This is the latest recevied weather packets stored in our database for station/object KK4PWJ-13. If no packets are shown the sender has not sent any weather packets the latest 1 day(s).
| Time | Temp. | Humidity | Pressure | Rain* | Wind** | Luminosity | Snow |
|---|---|---|---|---|---|---|---|
| 1778015991 | 26.11° C | 38% | 1011.6 hPa | 0 mm | 0.45 m/s, 83° | 52 W/m² | - |
| 1778015689 | 26.11° C | 39% | 1011.6 hPa | 0 mm | 0.45 m/s, 166° | 105 W/m² | - |
| 1778015385 | 26.11° C | 37% | 1011.8 hPa | 0 mm | 0 m/s | 66 W/m² | - |
| 1778015082 | 26.11° C | 38% | 1011.6 hPa | 0 mm | 0 m/s | 65 W/m² | - |
| 1778014779 | 26.11° C | 39% | 1011.5 hPa | 0 mm | 0.45 m/s, 121° | 137 W/m² | - |
| 1778014477 | 26.11° C | 39% | 1011.9 hPa | 0 mm | 0.45 m/s, 162° | 76 W/m² | - |
| 1778014174 | 26.11° C | 37% | 1012 hPa | 0 mm | 0 m/s | 76 W/m² | - |
| 1778013872 | 26.67° C | 38% | 1011.8 hPa | 0 mm | 0.45 m/s, 220° | 118 W/m² | - |
| 1778013569 | 26.67° C | 38% | 1011.7 hPa | 0 mm | 0 m/s | 98 W/m² | - |
| 1778013265 | 26.67° C | 35% | 1011.8 hPa | 0 mm | 0.89 m/s, 304° | 99 W/m² | - |
| 1778012961 | 26.67° C | 37% | 1011.9 hPa | 0 mm | 0.45 m/s, 166° | 163 W/m² | - |
| 1778012658 | 27.22° C | 36% | 1011.9 hPa | 0 mm | 0.45 m/s, 119° | 166 W/m² | - |
| 1778012354 | 27.22° C | 35% | 1012.1 hPa | 0 mm | 0 m/s | 181 W/m² | - |
| 1778012051 | 27.78° C | 36% | 1012.2 hPa | 0 mm | 0 m/s | 118 W/m² | - |
| 1778011750 | 27.78° C | 36% | 1012.1 hPa | 0 mm | 0.45 m/s, 185° | 663 W/m² | - |
| 1778011446 | 27.22° C | 35% | 1012.1 hPa | 0 mm | 0.45 m/s, 276° | 561 W/m² | - |
| 1778011142 | 27.78° C | 35% | 1012.3 hPa | 0 mm | 0.89 m/s, 154° | 405 W/m² | - |
| 1778010839 | 28.89° C | 38% | 1012.1 hPa | 0 mm | 0.45 m/s, 154° | 467 W/m² | - |
| 1778010536 | 28.33° C | 34% | 1012.2 hPa | 0 mm | 0.45 m/s, 85° | 709 W/m² | - |
| 1778010234 | 28.33° C | 34% | 1012.4 hPa | 0 mm | 0 m/s | 715 W/m² | - |
| 1778009934 | 28.33° C | 36% | 1012.3 hPa | 0 mm | 0.45 m/s, 158° | 744 W/m² | - |
| 1778009633 | 28.89° C | 34% | 1012.6 hPa | 0 mm | 0.45 m/s, 168° | 757 W/m² | - |
| 1778009330 | 28.33° C | 37% | 1012.7 hPa | 0 mm | 0 m/s | 518 W/m² | - |
| 1778009028 | 27.78° C | 36% | 1012.8 hPa | 0 mm | 0 m/s | 630 W/m² | - |
| 1778008725 | 27.78° C | 36% | 1013 hPa | 0 mm | 0.45 m/s, 265° | 667 W/m² | - |
* Rain latest hour (hover to see other rain measurements)
** Current wind speed in m/s (hover to see current wind gust speed)